This is the latest recevied weather packets stored in our database for station/object AI5KP-13. If no packets are shown the sender has not sent any weather packets the latest 10 day(s).
| Time | Temp. | Humidity | Pressure | Rain* | Wind** | Luminosity | Snow |
|---|---|---|---|---|---|---|---|
| 1777091427 | 15.56° C | 95% | 1008.7 hPa | 0 mm | - | 0 W/m² | - |
| 1777091121 | 15.56° C | 95% | 1008.5 hPa | 0 mm | - | 0 W/m² | - |
| 1777090819 | 15° C | 95% | 1008.6 hPa | 0 mm | - | 0 W/m² | - |
| 1777090516 | 15.56° C | 95% | 1008.7 hPa | 0 mm | - | 0 W/m² | - |
| 1777090212 | 15.56° C | 95% | 1008.7 hPa | 0 mm | - | 0 W/m² | - |
| 1777089908 | 15.56° C | 95% | 1008.8 hPa | 0 mm | - | 0 W/m² | - |
| 1777089603 | 15.56° C | 95% | 1008.8 hPa | 0 mm | - | 0 W/m² | - |
| 1777089299 | 15.56° C | 95% | 1009 hPa | 0 mm | - | 0 W/m² | - |
| 1777088993 | 15.56° C | 95% | 1008.9 hPa | 0 mm | - | 0 W/m² | - |
| 1777088689 | 16.11° C | 95% | 1008.8 hPa | 0 mm | - | 0 W/m² | - |
| 1777088384 | 16.11° C | 95% | 1009 hPa | 0 mm | - | 0 W/m² | - |
| 1777088078 | 16.11° C | 95% | 1009 hPa | 0 mm | - | 0 W/m² | - |
| 1777087773 | 16.67° C | 95% | 1009.1 hPa | 0 mm | - | 0 W/m² | - |
| 1777087468 | 16.67° C | 94% | 1008.8 hPa | 0 mm | - | 0 W/m² | - |
| 1777087163 | 16.67° C | 94% | 1008.7 hPa | 0 mm | - | 0 W/m² | - |
| 1777086858 | 16.67° C | 94% | 1008.6 hPa | 0 mm | - | 0 W/m² | - |
| 1777086553 | 16.67° C | 94% | 1008.6 hPa | 0 mm | - | 0 W/m² | - |
| 1777086250 | 16.67° C | 94% | 1008.5 hPa | 0 mm | - | 0 W/m² | - |
| 1777085949 | 16.67° C | 94% | 1008.5 hPa | 0 mm | - | 0 W/m² | - |
| 1777085647 | 16.67° C | 94% | 1008.3 hPa | 0 mm | - | 0 W/m² | - |
| 1777085342 | 16.67° C | 94% | 1008.5 hPa | 0 mm | - | 0 W/m² | - |
| 1777085039 | 17.22° C | 93% | 1008.2 hPa | 0 mm | - | 0 W/m² | - |
| 1777084735 | 17.22° C | 93% | 1008.3 hPa | 0 mm | - | 0 W/m² | - |
| 1777084430 | 17.22° C | 93% | 1008.1 hPa | 0 mm | - | 0 W/m² | - |
| 1777084125 | 17.22° C | 93% | 1008.1 hPa | 0 mm | - | 0 W/m² | - |
* Rain latest hour (hover to see other rain measurements)
** Current wind speed in m/s (hover to see current wind gust speed)